Time,TemperatureF,DewpointF,PressureIn,WindDirection,WindDirectionDegrees,WindSpeedMPH,WindSpeedGustMPH,Humidity,HourlyPrecipIn,Conditions,Clouds,dailyrainin,SoftwareType,DateUTC
2013-04-27 00:06:00,29.5,21.6,30.05,NNW,337,3.2,-999.0,72,-99.99,,,0.00,Acu-Link.com,2013-04-27 06:06:00,
2013-04-27 00:21:00,28.8,20.9,30.06,ESE,112,0.0,-999.0,72,-99.99,,,0.00,Acu-Link.com,2013-04-27 06:21:00,
2013-04-27 00:36:00,27.3,20.4,30.06,West,270,0.0,-999.0,75,-99.99,,,0.00,Acu-Link.com,2013-04-27 06:36:00,
2013-04-27 00:51:00,27.9,21.0,30.06,NE,45,0.0,-999.0,75,-99.99,,,0.00,Acu-Link.com,2013-04-27 06:51:00,
2013-04-27 01:07:00,26.1,20.2,30.06,NW,315,0.0,-999.0,78,-99.99,,,0.00,Acu-Link.com,2013-04-27 07:07:00,
2013-04-27 01:22:00,25.0,20.9,30.07,North,0,0.0,-999.0,84,-99.99,,,0.00,Acu-Link.com,2013-04-27 07:22:00,
2013-04-27 01:37:00,23.9,20.1,30.07,North,0,0.0,-999.0,85,-99.99,,,0.00,Acu-Link.com,2013-04-27 07:37:00,
2013-04-27 01:52:00,23.2,20.4,30.06,SSW,202,0.0,-999.0,89,-99.99,,,0.00,Acu-Link.com,2013-04-27 07:52:00,
2013-04-27 02:08:00,22.6,19.9,30.06,SSW,202,0.0,-999.0,89,-99.99,,,0.00,Acu-Link.com,2013-04-27 08:08:00,
2013-04-27 02:23:00,21.9,20.2,30.06,SW,225,0.0,-999.0,93,-99.99,,,0.00,Acu-Link.com,2013-04-27 08:23:00,
2013-04-27 02:38:00,23.2,22.7,30.05,West,270,0.0,-999.0,98,-99.99,,,0.00,Acu-Link.com,2013-04-27 08:38:00,
2013-04-27 02:53:00,23.0,20.3,30.06,NNE,22,0.0,-999.0,89,-99.99,,,0.00,Acu-Link.com,2013-04-27 08:53:00,
2013-04-27 03:09:00,21.9,20.4,30.06,NNE,22,0.0,-999.0,94,-99.99,,,0.00,Acu-Link.com,2013-04-27 09:09:00,
2013-04-27 03:24:00,21.2,20.7,30.05,East,90,0.0,-999.0,98,-99.99,,,0.00,Acu-Link.com,2013-04-27 09:24:00,
2013-04-27 03:39:00,22.1,21.6,30.06,SSE,157,0.0,-999.0,98,-99.99,,,0.00,Acu-Link.com,2013-04-27 09:39:00,
2013-04-27 03:55:00,20.8,20.3,30.07,NNE,22,0.0,-999.0,98,-99.99,,,0.00,Acu-Link.com,2013-04-27 09:55:00,
2013-04-27 04:10:00,19.9,19.4,30.07,North,0,0.0,-999.0,98,-99.99,,,0.00,Acu-Link.com,2013-04-27 10:10:00,
2013-04-27 04:25:00,19.4,18.9,30.07,ENE,67,0.0,-999.0,98,-99.99,,,0.00,Acu-Link.com,2013-04-27 10:25:00,
2013-04-27 04:40:00,19.0,18.5,30.07,North,0,0.0,-999.0,98,-99.99,,,0.00,Acu-Link.com,2013-04-27 10:40:00,
2013-04-27 04:56:00,19.4,18.9,30.07,North,0,2.2,-999.0,98,-99.99,,,0.00,Acu-Link.com,2013-04-27 10:56:00,
2013-04-27 05:11:00,19.9,19.4,30.07,NE,45,0.0,-999.0,98,-99.99,,,0.00,Acu-Link.com,2013-04-27 11:11:00,
2013-04-27 05:26:00,18.9,18.4,30.08,East,90,1.1,-999.0,98,-99.99,,,0.00,Acu-Link.com,2013-04-27 11:26:00,
2013-04-27 05:42:00,18.3,17.8,30.08,NE,45,0.0,-999.0,98,-99.99,,,0.00,Acu-Link.com,2013-04-27 11:42:00,
2013-04-27 05:57:00,17.8,17.3,30.08,East,90,0.0,-999.0,98,-99.99,,,0.00,Acu-Link.com,2013-04-27 11:57:00,
2013-04-27 06:12:00,17.8,17.3,30.09,East,90,0.0,-999.0,98,-99.99,,,0.00,Acu-Link.com,2013-04-27 12:12:00,
2013-04-27 06:27:00,17.1,16.6,30.09,NE,45,0.0,-999.0,98,-99.99,,,0.00,Acu-Link.com,2013-04-27 12:27:00,
2013-04-27 06:43:00,19.9,19.4,30.10,NE,45,0.0,-999.0,98,-99.99,,,0.00,Acu-Link.com,2013-04-27 12:43:00,
2013-04-27 06:58:00,25.5,25.0,30.10,SSE,157,0.0,-999.0,98,-99.99,,,0.00,Acu-Link.com,2013-04-27 12:58:00,
2013-04-27 07:13:00,30.4,25.9,30.10,ESE,112,1.1,-999.0,83,-99.99,,,0.00,Acu-Link.com,2013-04-27 13:13:00,
2013-04-27 07:28:00,34.9,26.5,30.11,NE,45,0.0,-999.0,71,-99.99,,,0.00,Acu-Link.com,2013-04-27 13:28:00,
2013-04-27 07:44:00,39.6,28.1,30.11,SSE,157,0.0,-999.0,63,-99.99,,,0.00,Acu-Link.com,2013-04-27 13:44:00,
2013-04-27 07:59:00,43.3,28.7,30.11,North,0,0.0,-999.0,56,-99.99,,,0.00,Acu-Link.com,2013-04-27 13:59:00,
2013-04-27 08:14:00,48.0,29.8,30.11,ENE,67,2.2,-999.0,49,-99.99,,,0.00,Acu-Link.com,2013-04-27 14:14:00,
2013-04-27 08:29:00,49.8,30.4,30.11,ESE,112,1.1,-999.0,47,-99.99,,,0.00,Acu-Link.com,2013-04-27 14:29:00,
2013-04-27 08:45:00,51.6,29.3,30.11,South,180,2.2,-999.0,42,-99.99,,,0.00,Acu-Link.com,2013-04-27 14:45:00,
2013-04-27 09:00:00,44.6,28.1,30.11,SE,135,3.2,-999.0,52,-99.99,,,0.00,Acu-Link.com,2013-04-27 15:00:00,
2013-04-27 09:15:00,44.6,27.1,30.09,SSE,157,2.2,-999.0,50,-99.99,,,0.00,Acu-Link.com,2013-04-27 15:15:00,
2013-04-27 09:30:00,47.7,28.5,30.09,SE,135,3.2,-999.0,47,-99.99,,,0.00,Acu-Link.com,2013-04-27 15:30:00,
2013-04-27 09:45:00,47.8,29.1,30.09,NW,315,1.1,-999.0,48,-99.99,,,0.00,Acu-Link.com,2013-04-27 15:45:00,
2013-04-27 10:01:00,50.4,31.5,30.08,South,180,1.1,-999.0,48,-99.99,,,0.00,Acu-Link.com,2013-04-27 16:01:00,
2013-04-27 10:16:00,51.1,28.2,30.08,NNW,337,2.2,-999.0,41,-99.99,,,0.00,Acu-Link.com,2013-04-27 16:16:00,
2013-04-27 10:31:00,53.6,31.1,30.07,WSW,247,4.2,-999.0,42,-99.99,,,0.00,Acu-Link.com,2013-04-27 16:31:00,
2013-04-27 10:47:00,54.9,31.6,30.07,South,180,5.8,-999.0,41,-99.99,,,0.00,Acu-Link.com,2013-04-27 16:47:00,
2013-04-27 11:02:00,55.2,31.3,30.07,SSE,157,2.7,-999.0,40,-99.99,,,0.00,Acu-Link.com,2013-04-27 17:02:00,
2013-04-27 11:17:00,58.5,31.6,30.05,South,180,2.7,-999.0,36,-99.99,,,0.00,Acu-Link.com,2013-04-27 17:17:00,
2013-04-27 11:32:00,59.5,29.6,30.05,WSW,247,3.2,-999.0,32,-99.99,,,0.00,Acu-Link.com,2013-04-27 17:32:00,
2013-04-27 11:47:00,60.8,26.6,30.04,SSW,202,3.2,-999.0,27,-99.99,,,0.00,Acu-Link.com,2013-04-27 17:47:00,
2013-04-27 12:03:00,61.7,22.5,30.04,SSW,202,5.3,-999.0,22,-99.99,,,0.00,Acu-Link.com,2013-04-27 18:03:00,
2013-04-27 12:18:00,61.9,21.5,30.04,WSW,247,2.7,-999.0,21,-99.99,,,0.00,Acu-Link.com,2013-04-27 18:18:00,
2013-04-27 12:33:00,63.9,26.4,30.02,SSW,202,6.3,-999.0,24,-99.99,,,0.00,Acu-Link.com,2013-04-27 18:33:00,
2013-04-27 12:48:00,62.8,12.9,30.01,SSE,157,4.7,-999.0,14,-99.99,,,0.00,Acu-Link.com,2013-04-27 18:48:00,
2013-04-27 13:04:00,65.1,26.4,30.00,WSW,247,4.7,-999.0,23,-99.99,,,0.00,Acu-Link.com,2013-04-27 19:04:00,
2013-04-27 13:20:00,64.9,17.6,29.99,South,180,4.7,-999.0,16,-99.99,,,0.00,Acu-Link.com,2013-04-27 19:20:00,
2013-04-27 13:35:00,64.2,-25.9,29.99,WNW,292,4.2,-999.0,2,-99.99,,,0.00,Acu-Link.com,2013-04-27 19:35:00,
2013-04-27 13:51:00,68.5,-35.7,29.98,SW,225,13.0,-999.0,1,-99.99,,,0.00,Acu-Link.com,2013-04-27 19:51:00,
2013-04-27 14:07:00,65.1,-37.8,29.97,NE,45,8.3,-999.0,1,-99.99,,,0.00,Acu-Link.com,2013-04-27 20:07:00,
2013-04-27 14:22:00,66.0,-37.2,29.96,NNW,337,4.7,-999.0,1,-99.99,,,0.00,Acu-Link.com,2013-04-27 20:22:00,
2013-04-27 14:38:00,65.7,-37.4,29.96,North,0,6.8,-999.0,1,-99.99,,,0.00,Acu-Link.com,2013-04-27 20:38:00,
2013-04-27 14:54:00,65.5,-37.5,29.95,ENE,67,7.8,-999.0,1,-99.99,,,0.00,Acu-Link.com,2013-04-27 20:54:00,
2013-04-27 15:09:00,63.1,-39.0,29.94,NNE,22,5.8,-999.0,1,-99.99,,,0.00,Acu-Link.com,2013-04-27 21:09:00,
2013-04-27 15:24:00,61.2,-40.1,29.93,North,0,9.4,-999.0,1,-99.99,,,0.00,Acu-Link.com,2013-04-27 21:24:00,
2013-04-27 15:40:00,65.5,-37.5,29.92,SSW,202,2.7,-999.0,1,-99.99,,,0.00,Acu-Link.com,2013-04-27 21:40:00,
2013-04-27 15:55:00,67.3,-36.4,29.91,West,270,2.7,-999.0,1,-99.99,,,0.00,Acu-Link.com,2013-04-27 21:55:00,
2013-04-27 16:10:00,65.3,-37.6,29.92,SSW,202,5.8,-999.0,1,-99.99,,,0.00,Acu-Link.com,2013-04-27 22:10:00,
2013-04-27 16:25:00,65.5,-37.5,29.90,SW,225,1.7,-999.0,1,-99.99,,,0.00,Acu-Link.com,2013-04-27 22:25:00,
2013-04-27 16:40:00,66.6,-36.9,29.90,WSW,247,6.3,-999.0,1,-99.99,,,0.00,Acu-Link.com,2013-04-27 22:40:00,
2013-04-27 16:55:00,65.8,-37.3,29.90,ESE,112,2.7,-999.0,1,-99.99,,,0.00,Acu-Link.com,2013-04-27 22:55:00,
2013-04-27 17:10:00,65.7,-37.4,29.90,SSE,157,5.3,-999.0,1,-99.99,,,0.00,Acu-Link.com,2013-04-27 23:10:00,
2013-04-27 17:26:00,65.8,-37.3,29.90,South,180,4.2,-999.0,1,-99.99,,,0.00,Acu-Link.com,2013-04-27 23:26:00,
2013-04-27 17:41:00,64.8,-37.9,29.91,SSW,202,2.7,-999.0,1,-99.99,,,0.00,Acu-Link.com,2013-04-27 23:41:00,
2013-04-27 17:56:00,63.3,-38.9,29.90,NNW,337,4.7,-999.0,1,-99.99,,,0.00,Acu-Link.com,2013-04-27 23:56:00,
2013-04-27 18:11:00,64.2,-38.3,29.90,North,0,7.8,-999.0,1,-99.99,,,0.00,Acu-Link.com,2013-04-28 00:11:00,
2013-04-27 18:28:00,63.3,-38.9,29.90,North,0,4.2,-999.0,1,-99.99,,,0.00,Acu-Link.com,2013-04-28 00:28:00,
2013-04-27 18:43:00,62.1,-39.6,29.91,NNW,337,5.3,-999.0,1,-99.99,,,0.00,Acu-Link.com,2013-04-28 00:43:00,
2013-04-27 18:59:00,60.8,-40.4,29.89,NNW,337,6.3,-999.0,1,-99.99,,,0.00,Acu-Link.com,2013-04-28 00:59:00,
2013-04-27 19:15:00,58.6,17.7,29.90,NNE,22,3.2,-999.0,20,-99.99,,,0.00,Acu-Link.com,2013-04-28 01:15:00,
2013-04-27 19:30:00,56.5,17.1,29.89,WSW,247,2.2,-999.0,21,-99.99,,,0.00,Acu-Link.com,2013-04-28 01:30:00,
2013-04-27 19:45:00,54.9,17.8,29.89,SSW,202,2.2,-999.0,23,-99.99,,,0.00,Acu-Link.com,2013-04-28 01:45:00,
2013-04-27 20:01:00,51.3,17.6,29.91,South,180,0.0,-999.0,26,-99.99,,,0.00,Acu-Link.com,2013-04-28 02:01:00,
2013-04-27 20:16:00,49.1,19.0,29.90,South,180,2.2,-999.0,30,-99.99,,,0.00,Acu-Link.com,2013-04-28 02:16:00,
2013-04-27 20:31:00,47.1,19.5,29.91,SSW,202,2.2,-999.0,33,-99.99,,,0.00,Acu-Link.com,2013-04-28 02:31:00,
2013-04-27 20:46:00,45.9,18.4,29.91,South,180,0.0,-999.0,33,-99.99,,,0.00,Acu-Link.com,2013-04-28 02:46:00,
2013-04-27 21:01:00,42.6,21.1,29.92,SSW,202,0.0,-999.0,42,-99.99,,,0.00,Acu-Link.com,2013-04-28 03:01:00,
2013-04-27 21:17:00,39.0,20.5,29.93,East,90,1.7,-999.0,47,-99.99,,,0.00,Acu-Link.com,2013-04-28 03:17:00,
2013-04-27 21:32:00,35.4,20.4,29.93,NNW,337,0.0,-999.0,54,-99.99,,,0.00,Acu-Link.com,2013-04-28 03:32:00,
2013-04-27 21:48:00,34.0,20.8,29.94,SW,225,0.0,-999.0,58,-99.99,,,0.00,Acu-Link.com,2013-04-28 03:48:00,
2013-04-27 22:04:00,34.5,20.4,29.95,WSW,247,3.7,-999.0,56,-99.99,,,0.00,Acu-Link.com,2013-04-28 04:04:00,
2013-04-27 22:19:00,36.9,21.4,29.95,North,0,0.0,-999.0,53,-99.99,,,0.00,Acu-Link.com,2013-04-28 04:19:00,
2013-04-27 22:36:00,36.5,21.0,29.95,SSE,157,0.0,-999.0,53,-99.99,,,0.00,Acu-Link.com,2013-04-28 04:36:00,
2013-04-27 22:52:00,35.2,20.2,29.96,South,180,0.0,-999.0,54,-99.99,,,0.00,Acu-Link.com,2013-04-28 04:52:00,
2013-04-27 23:07:00,33.6,19.6,29.97,SSW,202,0.0,-999.0,56,-99.99,,,0.00,Acu-Link.com,2013-04-28 05:07:00,
2013-04-27 23:22:00,32.7,19.6,29.95,West,270,0.0,-999.0,58,-99.99,,,0.00,Acu-Link.com,2013-04-28 05:22:00,
2013-04-27 23:38:00,32.7,20.4,29.96,SSW,202,0.0,-999.0,60,-99.99,,,0.00,Acu-Link.com,2013-04-28 05:38:00,
2013-04-27 23:55:00,31.8,20.3,29.96,SW,225,2.2,-999.0,62,-99.99,,,0.00,Acu-Link.com,2013-04-28 05:55:00,